www.pogodaiklimat.ru

Погода и климат >> Архив погоды >> Россия >> Краснодарский край >> Новороссийск


АРХИВ ПОГОДЫ в Новороссийске

Время (UTC), дата Ветер
(напр.,м/с)
 
Видим.   Явления Облачность Т
(С)
Тd
(С)
f
(%)
Тe
(С)
Тes
(С)
Комфортность P
(гПа)
Po
(гПа)
Тmin
(С)
Tmax
(С)
R
(мм)
R24
(мм)
S
(см)
15 23.04 В 2
{23}
10 км слабый ливневой дождь 10/10 600 м
[Cb cap]
+9.1 +4.8 74 +8 +8 прохладно 1000.7 1000.3 +9.1 2
18 23.04 С 3
{14}
10 км слабый ливневой дождь 10/10 600 м
[Cb cap]
+4.2 +1.7 84 +1 +1 очень
холодно
1008.4 1008.0
21 23.04 СЗ 3 10 км слабый ливневой дождь 10/10 600 м
[Cb cap]
+6.2 +3.1 81 +3 +3 прохладно 1012.3 1011.9
00 24.04 ЮЗ 4 10 км слабый ливневой дождь 10/10 600 м
[Cb cap]
+7.5 +5.0 84 +4 +4 прохладно 1013.6 1013.2
03 24.04 Ю 2 20 км {ливн. осадки} 9/8 600 м
[Sc Ac trans]
+8.2 +5.8 85 +6 +6 по сезону 1014.2 1013.8 +4.1 4
06 24.04 Ю 4
{10}
20 км слабый ливневой дождь 10/10 600 м
[Cb cap]
+9.2 +7.6 90 +6 +6 прохладно 1014.2 1013.8
09 24.04 ЮЗ 6-12
{13}
20 км в посл. час ливневой дождь 8/6 600 м
[Cb cap Ac As]
+8.7 +6.1 84 +5 +6 холодно 1014.3 1013.9
12 24.04 З 4
{10}
20 км {ливн. осадки} 9/9 600 м
[Cb cap]
+9.3 +5.6 78 +6 +7 холодно 1016.8 1016.4
15 24.04 Ю 2
{10}
20 км {ливн. осадки} 8/3 600 м
[Cb cap Ac As]
+9.9 +7.4 84 +8 +9 прохладно 1019.7 1019.3 +10.2 6
18 24.04 штиль 0 10 км 8/3 1000 м
[Cu hum Ac As]
+8.6 +5.8 83 +8 +8 по сезону 1021.4 1021.0
21 24.04 СВ 1 10 км 8/3 600 м
[Sc diur, vesp Ac trans]
+6.1 +3.5 83 +5 +5 прохладно 1022.5 1022.1
00 25.04 СВ 2 10 км 6/0
[Ac trans]
+4.8 +2.1 83 +2 +2 прохладно 1024.0 1023.6
03 25.04 СВ 1 20 км 8/5 1000 м
[Cb cap Ac trans]
+5.4 +3.2 86 +4 +4 прохладно 1025.8 1025.4 +4.7
06 25.04 З 2 20 км 3/3 600 м
[Cu med, cong]
+9.7 +4.3 69 +8 +14 по сезону 1028.2 1027.8
09 25.04 ЮЗ 5 20 км 5/5 600 м
[Cu med, cong]
+10.5 +5.8 73 +8 +12 прохладно 1029.5 1029.1
12 25.04 Ю 4 20 км {ливн. осадки} 1/1 600 м
[Cu med, cong]
+11.2 +7.0 75 +9 +16 прохладно 1030.0 1029.6
15 25.04 Ю 3 20 км 8/8 600 м
[Sc]
+10.4 +6.5 77 +8 +9 прохладно 1030.8 1030.4 +12.1
18 25.04 В 1 10 км 4/4 600 м
[Sc]
+8.5 +5.5 81 +8 +8 по сезону 1031.0 1030.6
21 25.04 В 2 10 км 3/3 600 м
[Sc]
+7.3 +4.3 81 +5 +5 прохладно 1030.3 1029.9
00 26.04 СВ 2 н/о н/о +5.1 +1.1 75 +3 +3 прохладно 1028.9 1027.5
03 26.04 штиль 0 20 км ясно +3.7 +1.1 83 +3 +3 холодно 1029.0 1028.6 +3.6
06 26.04 штиль 0 20 км ясно +9.9 +2.1 58 +10 +20 опасность
простуды
1028.9 1028.5
09 26.04 ЮЗ 1 20 км ясно +12.0 +1.7 49 +12 +32 опасность
простуды
1028.8 1028.4
12 26.04 Ю 1 20 км ясно +13.2 +4.3 55 +14 +27 опасность
простуды
1027.3 1026.9
15 26.04 штиль 0 20 км ясно +14.1 +2.3 45 +14 +16 тепло 1025.8 1025.4 +14.3
18 26.04 СЗ 1 10 км ясно +13.0 +2.3 48 +13 +13 тепло 1024.6 1024.2
21 26.04 СВ 6
{11}
10 км ясно +16.4 -1.4 30 +15 +15 тепло 1023.3 1022.9
00 27.04 СВ 6
{11}
10 км ясно +16.4 -1.4 30 +15 +15 тепло 1023.3 1022.9
03 27.04 штиль 0 20 км ясно +8.3 +0.6 58 +8 +8 по сезону 1022.4 1022.0 +8.3
06 27.04 Ю 1 20 км ясно +13.1 +7.6 69 +13 +23 тепло 1022.8 1022.4
09 27.04 ЮЗ 1 20 км ясно +14.1 +8.8 70 +15 +34 опасность
простуды
1023.4 1023.0
12 27.04 Ю 1 20 км ясно +16.4 +7.7 56 +17 +31 опасность
простуды
1023.1 1022.7
15 27.04 Ю 2 20 км ясно +15.4 +9.4 67 +15 +17 тепло 1021.4 1021.0 +16.7
18 27.04 СЗ 2 10 км ясно +16.1 +10.4 69 +16 +16 тепло 1020.9 1020.5
21 27.04 штиль 0 10 км ясно +11.9 +7.4 74 +11 +11 тепло 1020.8 1020.4
00 28.04 штиль 0 10 км ясно +10.9 +6.2 73 +10 +10 по сезону 1020.2 1019.8
03 28.04 штиль 0 20 км ясно +9.8 +5.6 75 +9 +10 по сезону 1020.5 1020.1 +9.8
06 28.04 Ю 1 20 км ясно +14.0 +6.8 62 +14 +24 тепло 1020.2 1019.8 +9.4
09 28.04 Ю 2 20 км ясно +18.1 +9.2 56 +19 +35 опасность
простуды
1019.5 1019.1
12 28.04 ЮЗ 2 20 км ясно +16.7 +9.9 64 +17 +29 опасность
простуды
1018.9 1018.5
15 28.04 штиль 0 20 км ясно +15.7 +10.0 69 +16 +18 тепло 1018.2 1017.8 +25.0
18 28.04 СВ 5
{11}
10 км ясно +19.6 -0.9 25 +19 +19 тепло 1017.4 1017.0
21 28.04 СВ 4
{11}
10 км ясно +19.5 +0.4 28 +20 +20 тепло 1017.1 1016.7
00 29.04 штиль 0
{10}
10 км ясно +13.1 +3.0 50 +13 +13 тепло 1016.8 1016.4
03 29.04 штиль 0 20 км ясно +11.6 +0.2 45 +11 +12 по сезону 1016.4 1016.0 +11.6
06 29.04 штиль 0 10 км ясно +15.3 +6.2 55 +15 +26 опасность
простуды
1017.2 1016.8
09 29.04 штиль 0 20 км ясно +17.1 +9.7 62 +17 +40 опасность
простуды
1017.6 1017.2
12 29.04 Ю 1 20 км ясно +22.2 +6.1 35 +23 +37 комфорт 1016.5 1016.1
15 29.04 штиль 0 20 км ясно +19.5 +8.4 49 +20 +23 тепло 1015.2 1014.8 +22.9
18 29.04 СВ 6
{10}
10 км ясно +23.1 +6.1 33 +24 +24 комфорт 1014.4 1014.0
21 29.04 СВ 8-12
{13}
10 км ясно +21.4 +6.7 39 +22 +22 комфорт 1013.7 1013.3
00 30.04 штиль 0
{13}
10 км ясно +13.8 +9.7 76 +13 +13 тепло 1014.8 1014.4
03 30.04 штиль 0 20 км ясно +12.6 +8.4 76 +12 +13 тепло 1015.0 1014.6 +12.5
06 30.04 штиль 0 20 км ясно +18.0 +7.1 49 +18 +29 тепло 1014.9 1014.5
09 30.04 ЮЗ 1 20 км ясно +17.1 +9.3 60 +18 +38 опасность
простуды
1014.7 1014.3

 

Местоположение метеостанции Новороссийск (Краснодарский край, Россия): широта 44.72 долгота 37.85 высота над уровнем моря 3 м.

В архиве по умолчанию представлена погода в Новороссийске за последнюю неделю. Архивные данные за месяц целиком и за предыдущие месяцы, начиная с января 2011 года, Вы можете получить, выбрав интересующий диапазон дат из раскрывающегося списка и нажав кнопку "Ввод!".

Внимание! Время в таблицах - всемирное. Для получения местного времени необходимо прибавить поправку, которая в Новороссийске равна 3 ч.

Смотрите также архив погоды в соседних городах и на ближайших метеорологических станциях:

Погода в Геленджике (Краснодарский край, Россия) (25 км)
Погода в Крымске (Краснодарский край, Россия) (25 км)
Погода в Анапе (Краснодарский край, Россия) (48 км)
Погода в Славянске-на-Кубани (Краснодарский край, Россия) (66 км)
Погода в Темрюке (Краснодарский край, Россия) (76 км)
Погода в Джубге (Краснодарский край, Россия) (81 км)
Погода в Горячем Ключе (Краснодарский край, Россия) (99 км)
Погода в Краснодаре (Краснодарский край, Россия) (100 км)
Погода в Тамани (Краснодарский край, Россия) (105 км)
Погода в Туапсе (Краснодарский край, Россия) (119 км)

Пояснения к столбцам:

Ветер - указаны скорость ветра в м/с - средняя за 10 мин, порывы в срок и между сроками (в фигурных скобках) и направление, откуда дует ветер: С - северный, СВ - северо-восточный, В - восточный, ЮВ - юго-восточный, Ю - южный, ЮЗ - юго-западный, З - западный, СЗ - северо-западный.
Видимость - горизонтальная дальность видимости в метрах или километрах. При видимости от 1 до 10 км при отсутствии осадков обычно наблюдается дымка, при ухудшении видимости до 1 км и менее - туман. В сухую погоду видимость может ухудшаться дымом, пылью или мглою.
Явления - указаны атмосферные явления, наблюдавшиеся в срок или в последний час перед сроком; фигурными скобками обозначены явления, наблюдавшиеся между сроками (за 1-3 часа до срока); квадратными скобками обозначены град или гололедные отложения с указанием их диаметра в мм.
Облачность - указаны через наклонную черту общая и нижняя облачность в баллах и высота нижней границы облаков в метрах; квадратными скобками обозначены формы облаков: Ci - перистые, Cs - перисто-слоистые, Cc - перисто-кучевые, Ac - высококучевые, As - высокослоистые, Sc - слоисто-кучевые, Ns - слоисто-дождевые, Cu - кучевые, Cb - кучево-дождевые. Подробнее классификацию облаков см. в Атласе облаков (PDF).
T - Температура воздуха - температура, измеренная на высоте 2 м над землей.
Td - Температура точки росы - температура, при понижении до которой содержащийся в воздухе водяной пар достигнет насыщения.
f - Относительная влажность воздуха - влажноcть воздуха, измеренная на высоте 2 м над землей.
Te - Эффективная температура - температура, которую ощущает одетый по сезону человек в тени. Характеристика душности погоды. При расчете учитывается влияние влажности воздуха и скорости ветра на теплоощущения человека.
Tes - Эффективная температура на солнце - температура, которую ощущает человек, с поправкой на солнечный нагрев. Характеристика знойности погоды. Зависит от высоты солнца над горизонтом, облачности и скорости ветра. Ночью, в пасмурную погоду, а также при ветре 12 м/с и более поправка равна нулю.
P - Атмосферное давление - приведенное к уровню моря атмосферное давление.
Po - Атмосферное давление - измеренное на уровне метеостанции атмосферное давление.
Tmin - Минимальная температура - минимум температуры воздуха на высоте 2 м над землей.
Tmax - Максимальная температура - максимум температуры воздуха на высоте 2 м над землей.
R - Количество осадков - Количество выпавших осадков за период времени, мм. При наведении курсора мыши на число - период времени, за который выпало указанное количество осадков.
R24 - Количество осадков - Количество выпавших осадков за 24 часа, мм.
S - Снежный покров - Высота снежного покрова, см. При наведении курсора мыши на число - состояние снежного покрова и степень покрытия местности в баллах.